EJU76FR EDDL-LIMC

Flight info

Callsign EJU76FR
Flight time 1h 11m
Altitude 35000
Route KUMIK5Z KUMIK L603 BOMBI N850 RINEX DCT KRH DCT NATOR DCT TRA N850 DEGAD Z424 RIXUV
Aircraft A320/M-SDE2E3FGHIJ1RWXYZ/LB1

Departure

Time 2026-05-06 17:01
Airport Düsseldorf Airport (EDDL)

Arrival

Time 2026-05-06 18:12
Airport Milan Malpensa International Airport (LIMC)
Time Latitude Longitude Altitude Speed Heading
2026-05-06 16:19 51.28062 6.76289 124 ft 0 kts 185°
2026-05-06 16:50 51.28073 6.76290 128 ft 4 kts 185°
2026-05-06 16:51 51.28100 6.76294 125 ft 4 kts 185°
2026-05-06 16:51 51.28123 6.76298 126 ft 4 kts 171°
2026-05-06 16:51 51.28142 6.76281 122 ft 4 kts 109°
2026-05-06 16:51 51.28143 6.76242 123 ft 4 kts 63°
2026-05-06 16:52 51.28130 6.76213 123 ft 1 kts 52°
2026-05-06 16:52 51.28130 6.76212 123 ft 0 kts 52°
2026-05-06 16:55 51.28131 6.76213 128 ft 1 kts 52°
2026-05-06 16:55 51.28145 6.76242 124 ft 7 kts 51°
2026-05-06 16:55 51.28189 6.76253 124 ft 7 kts 324°
2026-05-06 16:55 51.28205 6.76198 126 ft 5 kts 277°
2026-05-06 16:56 51.28188 6.76147 127 ft 5 kts 233°
2026-05-06 16:56 51.28150 6.76067 127 ft 11 kts 233°
2026-05-06 16:56 51.28102 6.75963 128 ft 12 kts 233°
2026-05-06 16:56 51.28049 6.75851 128 ft 13 kts 233°
2026-05-06 16:57 51.27982 6.75713 126 ft 17 kts 232°
2026-05-06 16:57 51.27909 6.75558 125 ft 18 kts 233°
2026-05-06 16:57 51.27846 6.75427 126 ft 10 kts 232°
2026-05-06 16:57 51.27844 6.75351 121 ft 8 kts 306°
2026-05-06 16:58 51.27880 6.75317 124 ft 0 kts 334°
2026-05-06 16:58 51.27882 6.75316 122 ft 1 kts 334°
2026-05-06 16:58 51.27891 6.75308 123 ft 2 kts 334°
2026-05-06 16:58 51.27893 6.75307 123 ft 0 kts 334°
2026-05-06 16:59 51.27918 6.75287 120 ft 8 kts 334°
2026-05-06 17:00 51.27970 6.75259 120 ft 7 kts 358°
2026-05-06 17:00 51.28006 6.75298 122 ft 8 kts 50°
2026-05-06 17:00 51.28141 6.75571 125 ft 66 kts 53°
2026-05-06 17:00 51.28550 6.76436 127 ft 127 kts 52°
2026-05-06 17:01 51.29198 6.77749 296 ft 163 kts 49°
2026-05-06 17:01 51.29911 6.79219 964 ft 172 kts 51°
2026-05-06 17:01 51.30661 6.80807 1553 ft 189 kts 52°
2026-05-06 17:01 51.31482 6.82568 1969 ft 208 kts 53°
2026-05-06 17:02 51.32374 6.84504 2410 ft 229 kts 53°
2026-05-06 17:02 51.33359 6.86639 2973 ft 246 kts 53°
2026-05-06 17:02 51.34396 6.88912 3640 ft 259 kts 60°
2026-05-06 17:02 51.34994 6.91680 4382 ft 268 kts 82°
2026-05-06 17:03 51.35098 6.94664 5256 ft 270 kts 96°
2026-05-06 17:03 51.34807 6.97624 6236 ft 267 kts 102°
2026-05-06 17:03 51.34336 7.00388 7382 ft 254 kts 113°
2026-05-06 17:03 51.33444 7.02851 8138 ft 258 kts 137°
2026-05-06 17:04 51.32095 7.04705 9175 ft 255 kts 135°
2026-05-06 17:04 51.31148 7.07113 9984 ft 260 kts 114°
2026-05-06 17:04 51.30591 7.09886 10727 ft 265 kts 104°
2026-05-06 17:04 51.30181 7.12778 11415 ft 271 kts 104°
2026-05-06 17:05 51.29767 7.15861 11668 ft 295 kts 103°
2026-05-06 17:05 51.29324 7.19206 11864 ft 319 kts 103°
2026-05-06 17:05 51.28847 7.22783 12212 ft 336 kts 103°
2026-05-06 17:05 51.28352 7.26494 12739 ft 340 kts 103°
2026-05-06 17:06 51.27876 7.30109 12958 ft 323 kts 103°
2026-05-06 17:06 51.27408 7.33686 13226 ft 338 kts 104°
2026-05-06 17:06 51.26651 7.37264 13497 ft 343 kts 122°
2026-05-06 17:06 51.25130 7.40159 13755 ft 341 kts 144°
2026-05-06 17:07 51.23080 7.41920 13991 ft 339 kts 162°
2026-05-06 17:07 51.20811 7.43000 14338 ft 343 kts 166°
2026-05-06 17:07 51.18500 7.43995 15012 ft 345 kts 166°
2026-05-06 17:07 51.16164 7.44985 15679 ft 349 kts 166°
2026-05-06 17:08 51.13837 7.46166 16317 ft 354 kts 155°
2026-05-06 17:08 51.11802 7.48418 16921 ft 361 kts 135°
2026-05-06 17:08 51.10219 7.51554 17534 ft 366 kts 128°
2026-05-06 17:08 51.08692 7.54801 18167 ft 368 kts 128°
2026-05-06 17:09 51.07151 7.58083 18741 ft 371 kts 128°
2026-05-06 17:09 51.05599 7.61377 19262 ft 374 kts 129°
2026-05-06 17:09 51.04032 7.64690 19798 ft 377 kts 129°
2026-05-06 17:09 51.02447 7.68030 20343 ft 380 kts 129°
2026-05-06 17:10 51.00847 7.71395 20886 ft 383 kts 129°
2026-05-06 17:10 50.99240 7.74781 21406 ft 385 kts 129°
2026-05-06 17:10 50.97623 7.78182 21904 ft 388 kts 129°
2026-05-06 17:10 50.95990 7.81610 22407 ft 391 kts 129°
2026-05-06 17:11 50.94346 7.85055 22910 ft 393 kts 129°
2026-05-06 17:11 50.92682 7.88533 23395 ft 396 kts 129°
2026-05-06 17:11 50.91012 7.92022 23810 ft 398 kts 129°
2026-05-06 17:11 50.89330 7.95528 24212 ft 401 kts 130°
2026-05-06 17:12 50.87637 7.99050 24622 ft 403 kts 130°
2026-05-06 17:12 50.85929 8.02599 25003 ft 406 kts 130°
2026-05-06 17:12 50.84238 8.06113 25384 ft 408 kts 130°
2026-05-06 17:12 50.82543 8.09735 25786 ft 411 kts 128°
2026-05-06 17:13 50.80918 8.13467 26195 ft 413 kts 127°
2026-05-06 17:13 50.79333 8.17275 26585 ft 416 kts 126°
2026-05-06 17:13 50.77760 8.21122 26966 ft 418 kts 126°
2026-05-06 17:13 50.76178 8.24989 27343 ft 420 kts 127°
2026-05-06 17:14 50.74573 8.28865 27721 ft 422 kts 127°
2026-05-06 17:14 50.72948 8.32736 28092 ft 424 kts 127°
2026-05-06 17:14 50.71270 8.36570 28455 ft 424 kts 132°
2026-05-06 17:14 50.69277 8.39985 28804 ft 421 kts 142°
2026-05-06 17:15 50.66975 8.42814 29158 ft 418 kts 151°
2026-05-06 17:15 50.64478 8.45044 29540 ft 417 kts 156°
2026-05-06 17:15 50.61914 8.47196 29906 ft 418 kts 156°
2026-05-06 17:15 50.59342 8.49369 30201 ft 420 kts 155°
2026-05-06 17:16 50.56758 8.51555 30480 ft 422 kts 156°
2026-05-06 17:16 50.54159 8.53753 30735 ft 424 kts 155°
2026-05-06 17:16 50.51550 8.55956 30983 ft 426 kts 156°
2026-05-06 17:16 50.48935 8.58158 31259 ft 427 kts 156°
2026-05-06 17:17 50.46320 8.60353 31659 ft 426 kts 156°
2026-05-06 17:17 50.43639 8.62258 32021 ft 420 kts 165°
2026-05-06 17:17 50.40856 8.63619 32378 ft 418 kts 167°
2026-05-06 17:17 50.38077 8.64915 32747 ft 417 kts 168°
2026-05-06 17:18 50.35291 8.66213 33031 ft 418 kts 168°
2026-05-06 17:18 50.32494 8.67520 33347 ft 418 kts 168°
2026-05-06 17:18 50.29712 8.68823 33749 ft 416 kts 168°
2026-05-06 17:18 50.26938 8.70122 33960 ft 418 kts 168°
2026-05-06 17:19 50.24176 8.71413 34111 ft 420 kts 168°
2026-05-06 17:19 50.21375 8.72720 34237 ft 420 kts 168°
2026-05-06 17:19 50.18572 8.74028 34350 ft 420 kts 168°
2026-05-06 17:19 50.15769 8.75336 34469 ft 421 kts 168°
2026-05-06 17:20 50.12964 8.76643 34600 ft 421 kts 168°
2026-05-06 17:20 50.10155 8.77948 34753 ft 421 kts 168°
2026-05-06 17:20 50.07308 8.78893 34801 ft 416 kts 176°
2026-05-06 17:21 50.01606 8.78633 34814 ft 408 kts 194°
2026-05-06 17:21 49.96097 8.76740 34811 ft 408 kts 194°
2026-05-06 17:22 49.90567 8.74802 34816 ft 408 kts 194°
2026-05-06 17:22 49.85026 8.72881 34812 ft 408 kts 194°
2026-05-06 17:23 49.79493 8.70981 34819 ft 407 kts 194°
2026-05-06 17:23 49.73950 8.69118 34817 ft 408 kts 191°
2026-05-06 17:24 49.68283 8.68274 34823 ft 409 kts 187°
2026-05-06 17:24 49.62606 8.67512 34813 ft 409 kts 187°
2026-05-06 17:25 49.56968 8.66745 34819 ft 409 kts 187°
2026-05-06 17:25 49.51287 8.65992 34814 ft 409 kts 187°
2026-05-06 17:26 49.45603 8.65249 34816 ft 410 kts 187°
2026-05-06 17:26 49.39925 8.64494 34811 ft 410 kts 186°
2026-05-06 17:27 49.34238 8.63732 34816 ft 410 kts 186°
2026-05-06 17:27 49.28542 8.62928 34817 ft 411 kts 187°
2026-05-06 17:28 49.22851 8.62028 34825 ft 411 kts 187°
2026-05-06 17:28 49.17160 8.61135 34825 ft 411 kts 187°
2026-05-06 17:29 49.11469 8.60262 34829 ft 411 kts 187°
2026-05-06 17:29 49.05785 8.59404 34827 ft 411 kts 187°
2026-05-06 17:30 49.00130 8.58553 34833 ft 411 kts 188°
2026-05-06 17:30 48.94531 8.56885 34832 ft 410 kts 193°
2026-05-06 17:31 48.88957 8.55072 34838 ft 410 kts 193°
2026-05-06 17:31 48.83375 8.53266 34835 ft 410 kts 193°
2026-05-06 17:32 48.77790 8.51469 34846 ft 410 kts 193°
2026-05-06 17:32 48.72163 8.49657 34847 ft 416 kts 193°
2026-05-06 17:33 48.66492 8.47834 34834 ft 417 kts 193°
2026-05-06 17:33 48.60795 8.46009 34832 ft 418 kts 193°
2026-05-06 17:34 48.55121 8.44206 34837 ft 419 kts 193°
2026-05-06 17:34 48.49408 8.42389 34848 ft 420 kts 193°
2026-05-06 17:35 48.43691 8.40565 34852 ft 420 kts 193°
2026-05-06 17:35 48.37965 8.38746 34857 ft 420 kts 193°
2026-05-06 17:36 48.30343 8.36335 34867 ft 420 kts 193°
2026-05-06 17:36 48.24623 8.34532 34873 ft 420 kts 193°
2026-05-06 17:37 48.18895 8.32777 34875 ft 420 kts 189°
2026-05-06 17:37 48.13047 8.33078 34884 ft 424 kts 173°
2026-05-06 17:38 48.07261 8.34498 34887 ft 424 kts 174°
2026-05-06 17:38 48.01432 8.35904 34886 ft 424 kts 174°
2026-05-06 17:39 47.95606 8.37301 34891 ft 423 kts 174°
2026-05-06 17:39 47.89783 8.38706 34896 ft 423 kts 174°
2026-05-06 17:40 47.83970 8.40102 34896 ft 423 kts 174°
2026-05-06 17:40 47.78195 8.41486 34903 ft 423 kts 174°
2026-05-06 17:41 47.72378 8.42881 34888 ft 423 kts 174°
2026-05-06 17:41 47.66568 8.44192 34902 ft 421 kts 176°
2026-05-06 17:42 47.60781 8.45068 34915 ft 419 kts 178°
2026-05-06 17:42 47.54966 8.45798 34926 ft 419 kts 178°
2026-05-06 17:43 47.49160 8.46591 34931 ft 419 kts 178°
2026-05-06 17:43 47.43351 8.47442 34931 ft 419 kts 178°
2026-05-06 17:44 47.37549 8.48309 34931 ft 419 kts 178°
2026-05-06 17:44 47.31757 8.49163 34930 ft 418 kts 178°
2026-05-06 17:45 47.25972 8.50012 34917 ft 418 kts 178°
2026-05-06 17:45 47.20212 8.50853 34911 ft 418 kts 178°
2026-05-06 17:46 47.14417 8.51691 34915 ft 418 kts 178°
2026-05-06 17:46 47.08618 8.52532 34917 ft 419 kts 178°
2026-05-06 17:47 47.02817 8.53366 34920 ft 418 kts 179°
2026-05-06 17:47 46.97058 8.54197 34928 ft 418 kts 179°
2026-05-06 17:48 46.91274 8.55028 34931 ft 417 kts 179°
2026-05-06 17:48 46.85503 8.55525 34855 ft 416 kts 182°
2026-05-06 17:49 46.82615 8.55650 34508 ft 413 kts 182°
2026-05-06 17:49 46.79746 8.55755 34160 ft 410 kts 182°
2026-05-06 17:49 46.76896 8.55871 33797 ft 408 kts 182°
2026-05-06 17:49 46.74287 8.55995 33382 ft 406 kts 183°
2026-05-06 17:50 46.71707 8.56131 33019 ft 404 kts 183°
2026-05-06 17:50 46.69130 8.56276 32496 ft 399 kts 183°
2026-05-06 17:50 46.66384 8.56439 31974 ft 394 kts 183°
2026-05-06 17:50 46.63670 8.56604 31439 ft 388 kts 182°
2026-05-06 17:51 46.60997 8.56765 30938 ft 381 kts 183°
2026-05-06 17:51 46.58359 8.56921 30424 ft 376 kts 182°
2026-05-06 17:51 46.55759 8.57071 29932 ft 372 kts 182°
2026-05-06 17:51 46.53187 8.57217 29344 ft 368 kts 182°
2026-05-06 17:52 46.50669 8.57363 28710 ft 366 kts 182°
2026-05-06 17:52 46.48183 8.57512 28111 ft 363 kts 182°
2026-05-06 17:52 46.45670 8.57664 27487 ft 361 kts 182°
2026-05-06 17:52 46.43167 8.57816 26874 ft 359 kts 181°
2026-05-06 17:53 46.40678 8.57967 26244 ft 357 kts 181°
2026-05-06 17:53 46.38196 8.58122 25599 ft 356 kts 181°
2026-05-06 17:53 46.35723 8.58269 25048 ft 355 kts 181°
2026-05-06 17:53 46.33273 8.58412 24464 ft 351 kts 180°
2026-05-06 17:54 46.30828 8.58554 23870 ft 351 kts 180°
2026-05-06 17:54 46.28385 8.58701 23263 ft 350 kts 180°
2026-05-06 17:54 46.25965 8.58849 22670 ft 347 kts 179°
2026-05-06 17:54 46.23575 8.58993 22265 ft 341 kts 180°
2026-05-06 17:55 46.21213 8.59134 21717 ft 338 kts 180°
2026-05-06 17:55 46.18867 8.59270 21282 ft 336 kts 180°
2026-05-06 17:55 46.16541 8.59404 20830 ft 333 kts 180°
2026-05-06 17:55 46.14261 8.59537 20367 ft 332 kts 180°
2026-05-06 17:56 46.11954 8.59674 19895 ft 330 kts 180°
2026-05-06 17:56 46.09656 8.59809 19431 ft 329 kts 180°
2026-05-06 17:56 46.07372 8.59943 18981 ft 328 kts 180°
2026-05-06 17:56 46.05091 8.60080 18486 ft 327 kts 180°
2026-05-06 17:57 46.02849 8.60212 18016 ft 326 kts 180°
2026-05-06 17:57 46.00586 8.60344 17544 ft 324 kts 180°
2026-05-06 17:57 45.98331 8.60478 17072 ft 323 kts 180°
2026-05-06 17:57 45.96098 8.60609 16741 ft 318 kts 180°
2026-05-06 17:58 45.93923 8.60737 16610 ft 307 kts 180°
2026-05-06 17:58 45.91816 8.60912 16413 ft 301 kts 174°
2026-05-06 17:58 45.89792 8.61651 16084 ft 301 kts 161°
2026-05-06 17:58 45.87941 8.63073 15731 ft 305 kts 148°
2026-05-06 17:59 45.86282 8.64972 15388 ft 305 kts 144°
2026-05-06 17:59 45.84633 8.66899 15043 ft 305 kts 144°
2026-05-06 17:59 45.82993 8.68809 14684 ft 304 kts 144°
2026-05-06 17:59 45.81349 8.70716 14335 ft 303 kts 144°
2026-05-06 18:00 45.79709 8.72613 14002 ft 302 kts 144°
2026-05-06 18:00 45.78099 8.74475 13693 ft 301 kts 145°
2026-05-06 18:00 45.76454 8.76319 13340 ft 298 kts 150°
2026-05-06 18:00 45.74665 8.77770 12969 ft 295 kts 155°
2026-05-06 18:01 45.72856 8.79157 12611 ft 294 kts 155°
2026-05-06 18:01 45.71056 8.80542 12329 ft 290 kts 155°
2026-05-06 18:01 45.69316 8.81887 12172 ft 276 kts 155°
2026-05-06 18:01 45.67650 8.83174 11761 ft 269 kts 155°
2026-05-06 18:02 45.66000 8.84441 11445 ft 268 kts 155°
2026-05-06 18:02 45.64364 8.85696 11189 ft 266 kts 155°
2026-05-06 18:02 45.62731 8.86943 10878 ft 265 kts 155°
2026-05-06 18:02 45.61026 8.87884 10571 ft 261 kts 170°
2026-05-06 18:03 45.59259 8.88372 10225 ft 258 kts 172°
2026-05-06 18:03 45.57497 8.88847 9749 ft 257 kts 172°
2026-05-06 18:03 45.55759 8.89320 9360 ft 257 kts 172°
2026-05-06 18:03 45.54009 8.89797 8985 ft 255 kts 172°
2026-05-06 18:04 45.52265 8.90272 8587 ft 254 kts 171°
2026-05-06 18:04 45.50550 8.90738 8256 ft 253 kts 171°
2026-05-06 18:04 45.48836 8.91205 8038 ft 246 kts 171°
2026-05-06 18:04 45.47171 8.91658 7807 ft 241 kts 171°
2026-05-06 18:05 45.45533 8.92102 7505 ft 239 kts 171°
2026-05-06 18:05 45.43914 8.92543 7196 ft 237 kts 171°
2026-05-06 18:05 45.42287 8.92767 6872 ft 234 kts 189°
2026-05-06 18:05 45.40837 8.91859 6624 ft 229 kts 220°
2026-05-06 18:06 45.39966 8.90027 6357 ft 227 kts 246°
2026-05-06 18:06 45.39488 8.87929 6057 ft 219 kts 251°
2026-05-06 18:06 45.39091 8.85876 5747 ft 211 kts 251°
2026-05-06 18:06 45.38826 8.83852 5385 ft 209 kts 268°
2026-05-06 18:07 45.39149 8.81852 5153 ft 208 kts 293°
2026-05-06 18:07 45.40042 8.80240 4973 ft 210 kts 319°
2026-05-06 18:07 45.41345 8.79313 4746 ft 213 kts 345°
2026-05-06 18:07 45.42798 8.78906 4480 ft 214 kts 348°
2026-05-06 18:08 45.44264 8.78510 4199 ft 215 kts 348°
2026-05-06 18:08 45.45704 8.78117 3927 ft 210 kts 348°
2026-05-06 18:08 45.47125 8.77728 3626 ft 205 kts 348°
2026-05-06 18:08 45.48507 8.77348 3360 ft 199 kts 348°
2026-05-06 18:09 45.49855 8.76978 3097 ft 195 kts 349°
2026-05-06 18:09 45.51167 8.76617 2832 ft 189 kts 349°
2026-05-06 18:09 45.52428 8.76270 2575 ft 179 kts 349°
2026-05-06 18:09 45.53628 8.75940 2361 ft 173 kts 350°
2026-05-06 18:10 45.54797 8.75618 2122 ft 168 kts 351°
2026-05-06 18:10 45.55911 8.75311 1906 ft 158 kts 351°
2026-05-06 18:10 45.56949 8.75024 1713 ft 145 kts 351°
2026-05-06 18:10 45.57929 8.74755 1491 ft 142 kts 350°
2026-05-06 18:11 45.58886 8.74491 1308 ft 138 kts 350°
2026-05-06 18:11 45.59829 8.74235 1117 ft 137 kts 349°
2026-05-06 18:11 45.60753 8.73979 948 ft 134 kts 351°
2026-05-06 18:11 45.61664 8.73725 783 ft 133 kts 350°
2026-05-06 18:12 45.62505 8.73497 741 ft 107 kts 348°
2026-05-06 18:12 45.63146 8.73322 738 ft 80 kts 348°
2026-05-06 18:12 45.63564 8.73193 742 ft 36 kts 347°
2026-05-06 18:12 45.63704 8.73105 742 ft 18 kts 315°
2026-05-06 18:13 45.63791 8.72964 741 ft 20 kts 300°
2026-05-06 18:13 45.63870 8.72827 741 ft 18 kts 322°
2026-05-06 18:13 45.63994 8.72773 740 ft 20 kts 350°
2026-05-06 18:13 45.64140 8.72734 739 ft 23 kts 349°
2026-05-06 18:14 45.64301 8.72691 740 ft 24 kts 349°
2026-05-06 18:14 45.64428 8.72671 740 ft 13 kts 356°
2026-05-06 18:14 45.64470 8.72597 740 ft 10 kts 266°
2026-05-06 18:14 45.64456 8.72489 740 ft 10 kts 258°
2026-05-06 18:15 45.64454 8.72444 740 ft 2 kts 297°
2026-05-06 18:15 45.64470 8.72431 740 ft 4 kts 337°
2026-05-06 18:15 45.64511 8.72417 740 ft 7 kts 348°
2026-05-06 18:15 45.64535 8.72411 740 ft 1 kts 349°